Regional Weather Roundup
Issued by NWS

Home | Current Version | Previous Version | Graphics & Text | Print | Product List | Glossary On
Versions: 1 2 3 4 5 6 7 8 9 10 11 12 13 14 15 16 17 18 19 20 21 22 23 24 25 26 27
000
ASUS45 KSLC 210510
RWRUT

UTAH REGIONAL WEATHER ROUNDUP
NATIONAL WEATHER SERVICE SALT LAKE CITY UT
1100 PM MDT THU JUL 20 2017

UTZ001>011-023>025-210600-

NORTHERN UTAH

CITY           SKY/WX    TMP DP  RH WIND       PRES   REMARKS
BRIGHAM CITY   CLOUDY    84  47  27 SE7       29.99R
HILL AFB       CLOUDY    84  51  31 S15       30.02R
LOGAN          CLOUDY    75  61  61 N3        30.02R
OGDEN          CLOUDY    85  51  31 SE10      29.98R
SALT LAKE CITY CLOUDY    86  54  33 SE13      29.97S
TOOELE VALLEY  CLOUDY    82  52  34 S16G22    29.98S
WENDOVER       MOCLDY    79  55  43 N3        29.99R
HEBER CITY     CLOUDY    72  50  46 CALM      30.13S
WEST JORDAN    CLOUDY    80  61  50 S17       30.03S

$$

UTZ011>015-024>027-210600-

CENTRAL/NORTHEAST UTAH

CITY           SKY/WX    TMP DP  RH WIND       PRES   REMARKS
PROVO AIRPORT  MOCLDY    77  55  46 S9        30.05S
MOAB/CANYONLAN CLOUDY    74  63  68 S8        30.09F
DELTA          PTCLDY    79  46  31 S9        30.07R
PRICE          CLOUDY    72  56  57 E7        30.22R
ROOSEVELT      CLEAR     70  54  56 CALM      30.15S
VERNAL         CLOUDY    73  53  49 W7        30.14R

$$

UTZ013>016-019>022-027-210600-

SOUTHERN UTAH

CITY           SKY/WX    TMP DP  RH WIND       PRES   REMARKS
BRYCE CANYON   PTCLDY    58  54  86 W6        30.35R
CEDAR CITY     PTCLDY    73  47  39 SW6       30.16S
MILFORD        PTCLDY    78  50  37 S14       30.10R
ST GEORGE      CLOUDY    86  48  26 S3        29.97R
HANKSVILLE     CLOUDY    73  55  53 E6        30.12F
BLANDING       CLOUDY    63  60  91 NW7       30.37R

$$

REGIONAL REPORTS     COLORADO/ARIZONA

CITY           SKY/WX    TMP DP  RH WIND       PRES   REMARKS
CRAIG, CO      CLOUDY    70  46  42 VRB5      30.22S
GRAND JUNCTION PTCLDY    79  54  41 SW3       30.14S
RIFLE, CO      CLOUDY    73  57  57 S3        30.21R
MONTROSE, CO   CLOUDY    73  50  44 E7        30.22S
CORTEZ, CO     CLOUDY    67  57  70 NW6       30.25R
COLORADO CITY    N/A     73  55  53 CALM      30.16S
PAGE, AZ       MOCLDY    82  55  39 SW9       30.07R
GRAND CANYON   MOCLDY    64  58  80 SW3       30.29F
KINGMAN, AZ    CLEAR     77  61  57 SE18      30.05R
FLAGSTAFF, AZ  MOCLDY    58  54  86 CALM      30.34F

$$

REGIONAL REPORTS    NEVADA/IDAHO/WYOMING

CITY           SKY/WX    TMP DP  RH WIND       PRES   REMARKS
LAS VEGAS, NV  MOCLDY    93  58  30 S5        29.88R HX  92
ELY, NY        CLOUDY    68  58  70 CALM      30.21R
ELKO, NV       PTCLDY    76  19  11 CALM      30.09R
POCATELLO, ID  CLEAR     72  38  29 S9        30.05R
BURLEY, ID     CLEAR     65  50  58 SW9       30.02S
FORT BRIDGER,    N/A     70  50  48 W6        30.26S
EVANSTON, WY   CLOUDY    69  51  52 S6        30.24R
ROCK SPRINGS,  CLOUDY    64  56  75 SE15      30.23R
KEMMERER, WY     N/A    N/A N/A N/A N6        30.27R

$$




USA.gov is the U.S. government's official web portal to all federal, state and local government web resources and services.